Location: Waco, TX
(31.5480°N, 97.1670°W)
Time: 01:25:09
(UTC-06:00)

ISS - Pass Details

Date: 18 November 2018
Orbit: 401 x 408 km, 51.6° (Epoch: 20 November)

Event Time Altitude Azimuth Distance (km) Brightness Sun altitude
Rises 19:35:25 0° 202° (SSW) 2,297 0.4 -27.0°
Enters shadow 19:36:32 - 197° (SSW) 1,861 -0.2 -27.2°
Reaches altitude 10° 19:37:40 10° 190° (S) 1,441 - -27.4°
Maximum altitude 19:40:28 27° 129° (SE) 797 - -28.0°
Drops below altitude 10° 19:43:17 10° 69° (ENE) 1,448 - -28.6°
Sets 19:45:32 0° 57° (ENE) 2,309 - -29.1°
